| time (UTC) | temp F | wind direction | speed MPH | gust MPH | rain 1hr in | rain 24hr in | rain mn in | humidity % | barometer mb |
| 20260508035435 | 43 | 0.0 | 0.0 | 0.00 | 0.00 | 0.00 | 80 | 1011.5 | |
| 20260508034434 | 42 | 0.0 | 0.0 | 0.00 | 0.00 | 0.00 | 82 | 1011.8 | |
| 20260508033435 | 40 | 0.0 | 0.0 | 0.00 | 0.00 | 0.00 | 83 | 1011.3 | |
| 20260508032434 | 40 | 0.0 | 0.0 | 0.00 | 0.00 | 0.00 | 81 | 1011.8 | |
| 20260508031435 | 41 | 0.0 | 0.0 | 0.00 | 0.00 | 0.00 | 80 | 1011.3 | |
| 20260508030434 | 42 | 0.0 | 0.0 | 0.00 | 0.00 | 0.00 | 79 | 1011.5 | |
| 20260508025435 | 42 | 0.0 | 0.0 | 0.00 | 0.00 | 0.00 | 79 | 1011.1 | |
| 20260508024434 | 42 | 0.0 | 0.0 | 0.00 | 0.00 | 0.00 | 76 | 1011.3 | |
| 20260508023456 | 43 | 0.0 | 0.0 | 0.00 | 0.00 | 0.00 | 73 | 1010.9 | |
| 20260508022434 | 43 | 0.0 | 0.0 | 0.00 | 0.00 | 0.00 | 71 | 1011.4 | |
| 20260508021435 | 45 | 0.0 | 0.0 | 0.00 | 0.00 | 0.00 | 67 | 1010.9 | |
| 20260508020434 | 46 | 0.0 | 0.0 | 0.00 | 0.00 | 0.00 | 63 | 1011.6 | |
| 20260508015456 | 46 | 0.0 | 0.0 | 0.00 | 0.00 | 0.00 | 62 | 1011.1 | |
| 20260508014434 | 47 | 0.0 | 0.0 | 0.00 | 0.00 | 0.00 | 60 | 1011.7 | |
| 20260508013435 | 47 | 0.0 | 0.0 | 0.00 | 0.00 | 0.00 | 59 | 1011.3 | |
| 20260508012434 | 48 | 0.0 | 0.0 | 0.00 | 0.00 | 0.00 | 58 | 1011.5 | |
| 20260508011516 | 48 | 0.0 | 0.0 | 0.00 | 0.00 | 0.00 | 56 | 1011.0 | |
| 20260508010434 | 48 | 0.0 | 0.0 | 0.00 | 0.00 | 0.00 | 56 | 1011.4 | |
| 20260508005436 | 49 | 0.0 | 0.0 | 0.00 | 0.00 | 0.00 | 55 | 1011.0 | |
| 20260508004434 | 49 | 0.0 | 0.0 | 0.00 | 0.00 | 0.00 | 54 | 1011.2 | |
| 20260508003435 | 49 | 0.0 | 0.0 | 0.00 | 0.00 | 0.00 | 52 | 1010.8 | |
| 20260508002434 | 49 | 0.0 | 0.0 | 0.00 | 0.00 | 0.00 | 52 | 1011.0 | |
| 20260508001435 | 49 | 0.0 | 0.0 | 0.00 | 0.00 | 0.00 | 52 | 1010.5 | |
| 20260508000434 | 50 | 0.0 | 0.0 | 0.00 | 0.00 | 0.00 | 51 | 1010.9 | |
| 20260507235435 | 50 | 0.0 | 0.0 | 0.00 | 0.00 | 0.00 | 50 | 1010.7 | |
| 20260507234434 | 50 | 0.0 | 0.0 | 0.00 | 0.00 | 0.00 | 49 | 1010.9 | |
| 20260507233436 | 50 | 0.0 | 0.0 | 0.00 | 0.00 | 0.00 | 49 | 1010.5 | |
| 20260507232434 | 50 | 0.0 | 0.0 | 0.00 | 0.00 | 0.00 | 48 | 1010.8 | |
| 20260507231456 | 50 | 0.0 | 0.0 | 0.00 | 0.00 | 0.00 | 49 | 1010.4 | |
| 20260507230514 | 51 | 0.0 | 0.0 | 0.00 | 0.00 | 0.00 | 46 | 1011.0 | |
| 20260507225436 | 51 | 0.0 | 0.0 | 0.00 | 0.00 | 0.00 | 46 | 1010.4 | |
| 20260507224434 | 52 | 0.0 | 0.0 | 0.00 | 0.00 | 0.00 | 46 | 1010.8 | |
| 20260507223435 | 53 | 0.0 | 0.0 | 0.00 | 0.00 | 0.00 | 43 | 1010.4 | |
| 20260507222434 | 53 | 337 | 0.0 | 1.0 | 0.00 | 0.00 | 0.00 | 44 | 1010.7 |
| 20260507221436 | 54 | 92 | 0.0 | 5.0 | 0.00 | 0.00 | 0.00 | 42 | 1010.3 |
| 20260507220434 | 54 | 0.0 | 0.0 | 0.00 | 0.00 | 0.00 | 41 | 1010.7 | |
| 20260507215435 | 54 | 316 | 0.0 | 4.0 | 0.00 | 0.00 | 0.00 | 42 | 1010.4 |
| 20260507214434 | 53 | 338 | 0.0 | 7.0 | 0.00 | 0.00 | 0.00 | 44 | 1010.8 |
| 20260507213435 | 54 | 0.0 | 0.0 | 0.00 | 0.00 | 0.00 | 43 | 1010.5 | |
| 20260507212434 | 53 | 274 | 0.0 | 4.0 | 0.00 | 0.00 | 0.00 | 45 | 1010.9 |
| 20260507211436 | 56 | 317 | 2.0 | 14.0 | 0.00 | 0.00 | 0.00 | 44 | 1010.4 |
| 20260507210434 | 54 | 300 | 1.0 | 11.0 | 0.00 | 0.00 | 0.00 | 44 | 1010.8 |
| 20260507205455 | 54 | 258 | 0.0 | 4.0 | 0.00 | 0.00 | 0.00 | 44 | 1010.4 |
| 20260507204434 | 55 | 320 | 0.0 | 5.0 | 0.00 | 0.00 | 0.00 | 44 | 1010.7 |
| 20260507203435 | 55 | 348 | 0.0 | 1.0 | 0.00 | 0.00 | 0.00 | 44 | 1010.5 |
| 20260507202434 | 55 | 82 | 3.0 | 15.0 | 0.00 | 0.00 | 0.00 | 45 | 1010.8 |
| 20260507201435 | 55 | 312 | 1.0 | 5.0 | 0.00 | 0.00 | 0.00 | 45 | 1010.6 |
| 20260507200434 | 56 | 3 | 1.0 | 7.0 | 0.00 | 0.00 | 0.00 | 46 | 1011.0 |
| 20260507195435 | 56 | 348 | 0.0 | 1.0 | 0.00 | 0.00 | 0.00 | 47 | 1010.6 |
| 20260507194454 | 56 | 274 | 0.0 | 4.0 | 0.00 | 0.00 | 0.00 | 47 | 1011.3 |
| 20260507193435 | 55 | 303 | 2.0 | 11.0 | 0.00 | 0.00 | 0.00 | 43 | 1010.7 |
| 20260507192434 | 55 | 0 | 0.0 | 5.0 | 0.00 | 0.00 | 0.00 | 44 | 1011.1 |
| 20260507191435 | 56 | 333 | 3.0 | 14.0 | 0.00 | 0.00 | 0.00 | 47 | 1011.0 |
| 20260507190434 | 55 | 302 | 0.0 | 2.0 | 0.00 | 0.00 | 0.00 | 46 | 1011.4 |
| 20260507185435 | 54 | 0.0 | 0.0 | 0.00 | 0.00 | 0.00 | 52 | 1011.0 | |
| 20260507184434 | 52 | 280 | 0.0 | 2.0 | 0.00 | 0.00 | 0.00 | 55 | 1011.6 |
| 20260507183535 | 53 | 0.0 | 0.0 | 0.00 | 0.00 | 0.00 | 55 | 1011.4 | |
| 20260507182434 | 54 | 0.0 | 0.0 | 0.00 | 0.00 | 0.00 | 53 | 1011.7 | |
| 20260507181436 | 55 | 0.0 | 0.0 | 0.00 | 0.00 | 0.00 | 57 | 1011.3 | |
| 20260507180434 | 53 | 0.0 | 0.0 | 0.00 | 0.00 | 0.00 | 59 | 1011.8 | |
| 20260507175436 | 54 | 9 | 0.0 | 2.0 | 0.00 | 0.00 | 0.00 | 56 | 1011.6 |
| 20260507174434 | 54 | 302 | 3.0 | 11.0 | 0.00 | 0.00 | 0.00 | 58 | 1012.0 |
| 20260507173435 | 53 | 0.0 | 0.0 | 0.00 | 0.00 | 0.00 | 59 | 1011.8 | |
| 20260507172434 | 53 | 319 | 1.0 | 8.0 | 0.00 | 0.00 | 0.00 | 59 | 1012.2 |
| 20260507171435 | 53 | 0.0 | 0.0 | 0.00 | 0.00 | 0.00 | 60 | 1011.9 | |
| 20260507170454 | 52 | 298 | 1.0 | 7.0 | 0.00 | 0.00 | 0.00 | 62 | 1012.4 |
| 20260507165435 | 52 | 254 | 0.0 | 2.0 | 0.00 | 0.00 | 0.00 | 61 | 1012.0 |
| 20260507164434 | 52 | 290 | 0.0 | 2.0 | 0.00 | 0.00 | 0.00 | 66 | 1012.4 |
| 20260507163435 | 52 | 326 | 0.0 | 1.0 | 0.00 | 0.00 | 0.00 | 64 | 1012.3 |
| 20260507162434 | 52 | 0.0 | 0.0 | 0.00 | 0.00 | 0.00 | 64 | 1012.8 | |
| 20260507161435 | 51 | 338 | 0.0 | 8.0 | 0.00 | 0.00 | 0.00 | 63 | 1012.4 |
| 20260507160434 | 51 | 265 | 0.0 | 5.0 | 0.00 | 0.00 | 0.00 | 63 | 1012.9 |
| 20260507155436 | 50 | 356 | 0.0 | 4.0 | 0.00 | 0.00 | 0.00 | 62 | 1012.8 |
| 20260507154454 | 50 | 284 | 0.0 | 10.0 | 0.00 | 0.01 | 0.00 | 64 | 1013.0 |
| 20260507153435 | 49 | 0.0 | 0.0 | 0.00 | 0.02 | 0.00 | 63 | 1013.0 | |
| 20260507152454 | 50 | 0.0 | 0.0 | 0.00 | 0.02 | 0.00 | 61 | 1013.2 | |
| 20260507151455 | 50 | 0.0 | 0.0 | 0.00 | 0.02 | 0.00 | 64 | 1013.1 | |
| 20260507150434 | 48 | 214 | 0.0 | 1.0 | 0.00 | 0.02 | 0.00 | 63 | 1013.4 |
| 20260507145435 | 47 | 0.0 | 0.0 | 0.00 | 0.03 | 0.00 | 64 | 1013.2 | |
| 20260507144434 | 46 | 7 | 0.0 | 4.0 | 0.00 | 0.03 | 0.00 | 65 | 1013.6 |
| 20260507143435 | 46 | 0.0 | 0.0 | 0.00 | 0.04 | 0.00 | 64 | 1013.3 | |
| 20260507142434 | 47 | 0.0 | 0.0 | 0.00 | 0.05 | 0.00 | 65 | 1013.4 | |
| 20260507141455 | 46 | 0.0 | 0.0 | 0.00 | 0.05 | 0.00 | 67 | 1013.4 | |
| 20260507140454 | 46 | 0.0 | 0.0 | 0.00 | 0.06 | 0.00 | 66 | 1013.6 | |
| 20260507135455 | 46 | 345 | 0.0 | 1.0 | 0.00 | 0.07 | 0.00 | 67 | 1013.4 |
| 20260507134454 | 46 | 0.0 | 0.0 | 0.00 | 0.08 | 0.00 | 67 | 1013.6 | |
| 20260507133435 | 46 | 5 | 0.0 | 1.0 | 0.00 | 0.09 | 0.00 | 67 | 1013.4 |
| 20260507132434 | 47 | 0.0 | 0.0 | 0.00 | 0.11 | 0.00 | 66 | 1013.5 | |
| 20260507131435 | 45 | 0.0 | 0.0 | 0.00 | 0.13 | 0.00 | 67 | 1013.3 | |
| 20260507130454 | 46 | 0.0 | 0.0 | 0.00 | 0.15 | 0.00 | 67 | 1013.3 | |
| 20260507125435 | 46 | 328 | 0.0 | 2.0 | 0.00 | 0.18 | 0.00 | 68 | 1013.3 |
| 20260507124434 | 45 | 0.0 | 0.0 | 0.00 | 0.20 | 0.00 | 71 | 1013.4 | |
| 20260507123455 | 46 | 309 | 0.0 | 5.0 | 0.00 | 0.24 | 0.00 | 72 | 1013.2 |
| 20260507122434 | 44 | 317 | 0.0 | 5.0 | 0.00 | 0.26 | 0.00 | 74 | 1013.4 |
| 20260507121435 | 44 | 0.0 | 0.0 | 0.00 | 0.28 | 0.00 | 78 | 1013.2 | |
| 20260507120434 | 43 | 0.0 | 0.0 | 0.00 | 0.29 | 0.00 | 78 | 1013.4 | |
| 20260507115435 | 43 | 0.0 | 0.0 | 0.00 | 0.30 | 0.00 | 80 | 1013.1 | |
| 20260507114434 | 43 | 0.0 | 0.0 | 0.00 | 0.30 | 0.00 | 83 | 1013.4 | |
| 20260507113456 | 43 | 0.0 | 0.0 | 0.00 | 0.31 | 0.00 | 86 | 1013.0 | |
| 20260507112434 | 42 | 0.0 | 0.0 | 0.00 | 0.32 | 0.00 | 88 | 1013.3 | |
| 20260507111435 | 41 | 0.0 | 0.0 | 0.00 | 0.33 | 0.00 | 88 | 1013.0 | |
| 20260507110434 | 40 | 0.0 | 0.0 | 0.00 | 0.35 | 0.00 | 89 | 1013.2 | |
| 20260507105435 | 40 | 0.0 | 0.0 | 0.00 | 0.36 | 0.00 | 91 | 1012.9 | |
| 20260507104434 | 40 | 0.0 | 0.0 | 0.00 | 0.38 | 0.00 | 95 | 1012.9 | |
| 20260507103435 | 38 | 0.0 | 0.0 | 0.00 | 0.39 | 0.00 | 97 | 1012.7 | |
| 20260507102434 | 35 | 0.0 | 0.0 | 0.00 | 0.40 | 0.00 | 97 | 1013.1 | |
| 20260507101435 | 34 | 0.0 | 0.0 | 0.00 | 0.40 | 0.00 | 97 | 1012.6 | |
| 20260507100436 | 34 | 0.0 | 0.0 | 0.00 | 0.44 | 0.00 | 96 | 1012.8 | |
| 20260507095455 | 34 | 0.0 | 0.0 | 0.00 | 0.44 | 0.00 | 95 | 1012.5 | |
| 20260507094434 | 35 | 0.0 | 0.0 | 0.00 | 0.44 | 0.00 | 94 | 1012.8 | |
| 20260507093435 | 35 | 0.0 | 0.0 | 0.00 | 0.46 | 0.00 | 93 | 1012.6 | |
| 20260507092434 | 36 | 0.0 | 0.0 | 0.00 | 0.46 | 0.00 | 91 | 1012.7 | |
| 20260507091435 | 37 | 0.0 | 0.0 | 0.00 | 0.48 | 0.00 | 89 | 1012.5 | |
| 20260507090434 | 38 | 0.0 | 0.0 | 0.00 | 0.49 | 0.00 | 87 | 1012.9 | |
| 20260507085435 | 39 | 0.0 | 0.0 | 0.00 | 0.51 | 0.00 | 84 | 1012.8 | |
| 20260507084434 | 39 | 0.0 | 0.0 | 0.00 | 0.52 | 0.00 | 83 | 1012.8 | |
| 20260507083435 | 40 | 0.0 | 0.0 | 0.00 | 0.52 | 0.00 | 82 | 1012.7 | |
| 20260507082434 | 39 | 0.0 | 0.0 | 0.00 | 0.53 | 0.00 | 83 | 1013.1 | |
| 20260507081455 | 39 | 0.0 | 0.0 | 0.00 | 0.54 | 0.00 | 84 | 1012.8 | |
| 20260507080434 | 39 | 0.0 | 0.0 | 0.00 | 0.56 | 0.00 | 84 | 1013.1 | |
| 20260507075435 | 40 | 0.0 | 0.0 | 0.00 | 0.58 | 0.00 | 83 | 1012.8 | |
| 20260507074434 | 41 | 0.0 | 0.0 | 0.00 | 0.58 | 0.00 | 82 | 1013.0 | |
| 20260507073455 | 41 | 0.0 | 0.0 | 0.00 | 0.58 | 0.00 | 80 | 1012.7 | |
| 20260507072454 | 41 | 0.0 | 0.0 | 0.00 | 0.58 | 0.00 | 81 | 1012.7 | |
| 20260507071435 | 41 | 0.0 | 0.0 | 0.00 | 0.58 | 0.00 | 80 | 1012.6 | |
| 20260507070434 | 42 | 0.0 | 0.0 | 0.00 | 0.58 | 0.00 | 80 | 1012.5 | |
| 20260507065435 | 42 | 0.0 | 0.0 | 0.00 | 0.58 | 0.00 | 80 | 1012.5 | |
| 20260507064434 | 42 | 0.0 | 0.0 | 0.00 | 0.58 | 0.00 | 78 | 1012.7 | |
| 20260507063455 | 42 | 0.0 | 0.0 | 0.00 | 0.58 | 0.00 | 79 | 1012.4 | |
| 20260507062434 | 42 | 0.0 | 0.0 | 0.00 | 0.58 | 0.00 | 80 | 1012.8 | |
| 20260507061435 | 42 | 0.0 | 0.0 | 0.00 | 0.58 | 0.00 | 83 | 1012.7 | |
| 20260507060434 | 42 | 0.0 | 0.0 | 0.00 | 0.60 | 0.00 | 86 | 1013.0 | |
| 20260507055435 | 43 | 0.0 | 0.0 | 0.00 | 0.60 | 0.00 | 90 | 1012.7 | |
| 20260507054434 | 43 | 0.0 | 0.0 | 0.00 | 0.60 | 0.00 | 92 | 1013.0 | |
| 20260507053435 | 43 | 0.0 | 0.0 | 0.00 | 0.60 | 0.00 | 93 | 1012.8 | |
| 20260507052434 | 43 | 0.0 | 0.0 | 0.00 | 0.60 | 0.00 | 93 | 1012.9 | |
| 20260507051435 | 43 | 0.0 | 0.0 | 0.00 | 0.60 | 0.00 | 94 | 1012.7 | |
| 20260507050454 | 43 | 0.0 | 0.0 | 0.00 | 0.60 | 0.00 | 94 | 1012.8 | |
| 20260507045455 | 43 | 0.0 | 0.0 | 0.00 | 0.60 | 0.00 | 95 | 1012.7 | |
| 20260507044433 | 44 | 0.0 | 0.0 | 0.00 | 0.60 | 0.00 | 96 | 1012.9 | |
| 20260507043435 | 44 | 0.0 | 0.0 | 0.00 | 0.60 | 0.00 | 96 | 1012.6 | |
| 20260507042434 | 44 | 0.0 | 0.0 | 0.00 | 0.60 | 0.00 | 97 | 1012.8 | |
| 20260507041435 | 44 | 0.0 | 0.0 | 0.00 | 0.61 | 0.00 | 98 | 1012.2 | |
| 20260507040434 | 44 | 0.0 | 0.0 | 0.00 | 0.61 | 0.00 | 98 | 1012.7 |